timestamp,wind_dir_avg,wind_spd_avg,wind_spd_max_dir,wind_spd_gust,battery_voltage,lat,long
2021-01-17 00:04:01+00:00,27.0,8.61,28.0,9.74,12.57,47.59359,-54.27349
2021-01-17 00:14:01+00:00,24.0,8.18,22.0,9.24,12.57,47.59359,-54.27349
2021-01-17 00:24:01+00:00,38.0,9.55,39.0,10.77,12.57,47.59359,-54.27349
2021-01-17 00:34:01+00:00,36.0,8.1,36.0,9.06,12.57,47.59359,-54.27349
2021-01-17 00:44:01+00:00,42.0,9.16,52.0,11.01,12.57,47.59359,-54.27349
2021-01-17 00:54:01+00:00,38.0,9.48,37.0,11.7,12.57,47.59359,-54.27349
2021-01-17 01:04:01+00:00,34.0,10.14,30.0,11.48,12.57,47.59359,-54.27349
2021-01-17 01:14:01+00:00,39.0,9.7,40.0,11.42,12.49,47.59359,-54.27349
2021-01-17 01:24:01+00:00,32.0,9.84,28.0,11.46,12.49,47.59359,-54.27349
2021-01-17 01:34:01+00:00,30.0,9.17,33.0,10.68,12.49,47.59359,-54.27349
2021-01-17 01:44:01+00:00,35.0,9.61,31.0,11.61,12.49,47.59359,-54.27349
2021-01-17 01:54:01+00:00,32.0,9.03,33.0,10.41,12.49,47.59359,-54.27349
2021-01-17 02:04:01+00:00,28.0,11.33,31.0,12.56,12.49,47.59359,-54.27349
2021-01-17 02:14:01+00:00,43.0,12.47,44.0,14.32,12.49,47.59359,-54.27349
2021-01-17 02:24:01+00:00,49.0,10.42,48.0,12.77,12.49,47.59359,-54.27349
2021-01-17 02:34:01+00:00,42.0,12.89,50.0,14.26,12.49,47.59359,-54.27349
2021-01-17 02:44:01+00:00,47.0,13.0,45.0,14.48,12.49,47.59359,-54.27349
2021-01-17 02:54:01+00:00,47.0,12.36,54.0,14.21,12.49,47.59359,-54.27349
2021-01-17 03:04:01+00:00,60.0,11.99,61.0,13.26,12.49,47.59359,-54.27349
2021-01-17 03:14:01+00:00,54.0,10.7,57.0,12.12,12.49,47.59359,-54.27349
2021-01-17 03:24:01+00:00,41.0,13.06,42.0,14.83,12.49,47.59359,-54.27349
2021-01-17 03:34:01+00:00,57.0,11.26,55.0,12.83,12.49,47.59359,-54.27349
2021-01-17 03:44:01+00:00,48.0,9.39,54.0,11.49,12.49,47.59359,-54.27349
2021-01-17 03:54:01+00:00,38.0,10.75,38.0,12.38,12.49,47.59359,-54.27349
2021-01-17 04:04:01+00:00,40.0,9.65,37.0,11.86,12.49,47.59359,-54.27349
2021-01-17 04:14:01+00:00,44.0,8.88,45.0,10.4,12.49,47.59359,-54.27349
2021-01-17 04:24:01+00:00,40.0,10.79,36.0,12.22,12.49,47.59359,-54.27349
2021-01-17 04:34:01+00:00,45.0,9.9,42.0,11.45,12.49,47.59359,-54.27349
2021-01-17 04:44:01+00:00,48.0,9.59,52.0,10.99,12.49,47.59359,-54.27349
2021-01-17 04:54:01+00:00,43.0,9.73,46.0,10.93,12.49,47.59359,-54.27349
2021-01-17 05:04:01+00:00,49.0,10.95,50.0,12.95,12.49,47.59359,-54.27349
2021-01-17 05:14:01+00:00,51.0,9.8,50.0,11.76,12.41,47.59359,-54.27349
2021-01-17 05:24:01+00:00,42.0,11.6,41.0,12.92,12.41,47.59359,-54.27349
2021-01-17 05:34:01+00:00,46.0,10.77,48.0,12.23,12.41,47.59359,-54.27349
2021-01-17 05:44:01+00:00,48.0,9.35,56.0,11.22,12.41,47.59359,-54.27349
2021-01-17 05:54:01+00:00,50.0,10.07,49.0,11.68,12.41,47.59359,-54.27349
2021-01-17 06:04:01+00:00,59.0,11.06,56.0,12.29,12.41,47.59359,-54.27349
2021-01-17 06:14:01+00:00,58.0,10.71,58.0,12.03,12.41,47.59359,-54.27349
2021-01-17 06:24:01+00:00,52.0,11.38,53.0,13.25,12.41,47.59359,-54.27349
2021-01-17 06:34:01+00:00,53.0,9.78,48.0,11.78,12.41,47.59359,-54.27349
2021-01-17 06:44:01+00:00,53.0,9.37,54.0,11.52,12.41,47.59359,-54.27349
2021-01-17 06:54:01+00:00,50.0,9.61,49.0,11.46,12.41,47.59359,-54.27349
2021-01-17 07:04:01+00:00,58.0,9.94,56.0,11.22,12.41,47.59359,-54.27349
2021-01-17 07:14:01+00:00,51.0,8.74,54.0,10.49,12.41,47.59359,-54.27349
2021-01-17 07:24:01+00:00,60.0,9.35,56.0,10.59,12.41,47.59359,-54.27349
2021-01-17 07:34:01+00:00,58.0,10.3,55.0,12.31,12.41,47.59359,-54.27349
2021-01-17 07:44:01+00:00,65.0,8.08,72.0,10.02,12.41,47.59359,-54.27349
2021-01-17 07:54:01+00:00,71.0,9.28,70.0,11.56,12.41,47.59359,-54.27349
2021-01-17 08:04:01+00:00,67.0,9.51,69.0,11.18,12.41,47.59359,-54.27349
2021-01-17 08:14:01+00:00,61.0,8.37,56.0,10.01,12.41,47.59359,-54.27349
2021-01-17 08:24:01+00:00,66.0,9.53,64.0,10.96,12.41,47.59359,-54.27349
2021-01-17 08:34:01+00:00,71.0,8.66,75.0,10.73,12.41,47.59359,-54.27349
2021-01-17 08:44:01+00:00,87.0,4.99,85.0,7.46,12.41,47.59359,-54.27349
2021-01-17 08:54:01+00:00,70.0,5.02,72.0,7.05,12.41,47.59359,-54.27349
2021-01-17 09:04:01+00:00,64.0,6.43,63.0,6.97,12.41,47.59359,-54.27349
2021-01-17 09:14:01+00:00,66.0,7.55,66.0,8.18,12.41,47.59359,-54.27349
2021-01-17 09:24:01+00:00,71.0,7.09,69.0,9.18,12.41,47.59359,-54.27349
2021-01-17 09:34:01+00:00,70.0,4.84,69.0,7.42,12.41,47.59359,-54.27349
2021-01-17 09:44:01+00:00,72.0,7.2,74.0,9.49,12.41,47.59359,-54.27349
2021-01-17 09:54:01+00:00,69.0,5.28,74.0,7.83,12.41,47.59359,-54.27349
2021-01-17 10:04:01+00:00,76.0,5.82,74.0,7.91,12.41,47.59359,-54.27349
2021-01-17 10:14:01+00:00,74.0,4.96,65.0,7.23,12.41,47.59359,-54.27349
2021-01-17 10:24:01+00:00,83.0,3.8,83.0,5.37,12.41,47.59359,-54.27349
2021-01-17 10:34:01+00:00,79.0,4.01,72.0,5.4,12.41,47.59359,-54.27349
2021-01-17 10:44:01+00:00,68.0,4.97,69.0,6.12,12.41,47.59359,-54.27349
2021-01-17 10:54:01+00:00,79.0,3.77,82.0,4.86,12.41,47.59359,-54.27349
2021-01-17 11:04:01+00:00,83.0,3.31,87.0,4.84,12.41,47.59359,-54.27349
2021-01-17 11:14:01+00:00,79.0,3.52,70.0,5.16,12.33,47.59359,-54.27349
2021-01-17 11:24:01+00:00,74.0,3.9,74.0,5.45,12.33,47.59359,-54.27349
2021-01-17 11:34:01+00:00,83.0,3.31,66.0,4.85,12.33,47.59359,-54.27349
2021-01-17 11:44:01+00:00,91.0,3.16,122.0,5.27,12.33,47.59359,-54.27349
2021-01-17 11:54:01+00:00,85.0,2.7,86.0,4.39,12.33,47.59359,-54.27349
2021-01-17 12:04:01+00:00,75.0,3.45,64.0,5.61,12.33,47.59359,-54.27349
2021-01-17 12:14:01+00:00,77.0,4.36,66.0,5.46,12.33,47.59359,-54.27349
2021-01-17 12:24:01+00:00,76.0,2.72,83.0,4.14,12.33,47.59359,-54.27349
2021-01-17 12:34:01+00:00,84.0,2.09,84.0,3.23,12.33,47.59359,-54.27349
2021-01-17 12:44:01+00:00,72.0,3.26,71.0,4.25,12.33,47.59359,-54.27349
2021-01-17 12:54:01+00:00,79.0,4.31,65.0,5.78,12.33,47.59359,-54.27349
2021-01-17 13:04:01+00:00,75.0,4.14,88.0,5.35,12.33,47.59359,-54.27349
2021-01-17 13:14:01+00:00,76.0,5.8,82.0,7.55,12.41,47.59359,-54.27349
2021-01-17 13:24:01+00:00,78.0,5.44,78.0,7.26,12.41,47.59359,-54.27349
2021-01-17 13:34:01+00:00,81.0,5.13,84.0,7.51,12.41,47.59359,-54.27349
2021-01-17 13:44:01+00:00,73.0,5.5,75.0,7.09,12.41,47.59359,-54.27349
2021-01-17 13:54:01+00:00,77.0,4.23,89.0,5.84,12.41,47.59359,-54.27349
2021-01-17 14:04:01+00:00,75.0,4.95,71.0,6.94,12.41,47.59359,-54.27349
2021-01-17 14:14:01+00:00,72.0,6.06,67.0,7.17,12.57,47.59359,-54.27349
2021-01-17 14:24:01+00:00,77.0,5.05,60.0,7.38,12.57,47.59359,-54.27349
2021-01-17 14:34:01+00:00,85.0,4.49,73.0,6.99,12.57,47.59359,-54.27349
2021-01-17 14:44:01+00:00,101.0,7.07,117.0,11.38,12.57,47.59359,-54.27349
2021-01-17 14:54:01+00:00,88.0,5.48,104.0,8.53,12.57,47.59359,-54.27349
2021-01-17 15:04:01+00:00,94.0,5.44,95.0,8.95,12.57,47.59359,-54.27349
2021-01-17 15:14:01+00:00,102.0,5.63,94.0,8.92,12.81,47.59359,-54.27349
2021-01-17 15:24:01+00:00,100.0,6.78,114.0,11.42,12.81,47.59359,-54.27349
2021-01-17 15:34:01+00:00,94.0,6.99,107.0,10.92,12.81,47.59359,-54.27349
2021-01-17 15:44:01+00:00,96.0,6.83,78.0,11.33,12.81,47.59359,-54.27349
2021-01-17 15:54:01+00:00,97.0,5.96,93.0,10.58,12.81,47.59359,-54.27349
2021-01-17 16:04:01+00:00,98.0,5.73,101.0,9.37,12.81,47.59359,-54.27349
2021-01-17 16:14:01+00:00,102.0,6.36,85.0,9.3,13.21,47.59359,-54.27349
2021-01-17 16:24:01+00:00,99.0,5.61,98.0,8.1,13.21,47.59359,-54.27349
2021-01-17 16:34:01+00:00,108.0,4.78,125.0,8.65,13.21,47.59359,-54.27349
2021-01-17 16:44:01+00:00,113.0,4.83,127.0,7.44,13.21,47.59359,-54.27349
2021-01-17 16:54:01+00:00,114.0,5.3,111.0,7.9,13.21,47.59359,-54.27349
2021-01-17 17:04:01+00:00,106.0,5.16,122.0,8.24,13.21,47.59359,-54.27349
2021-01-17 17:14:01+00:00,119.0,5.85,124.0,7.39,13.05,47.59359,-54.27349
2021-01-17 17:24:01+00:00,114.0,3.71,117.0,4.99,13.05,47.59359,-54.27349
2021-01-17 17:34:01+00:00,118.0,5.12,120.0,6.96,13.05,47.59359,-54.27349
2021-01-17 17:44:01+00:00,110.0,5.62,122.0,8.16,13.05,47.59359,-54.27349
2021-01-17 17:54:01+00:00,97.0,4.38,89.0,7.45,13.05,47.59359,-54.27349
2021-01-17 18:04:01+00:00,127.0,4.46,133.0,5.67,13.05,47.59359,-54.27349
2021-01-17 18:14:01+00:00,120.0,6.15,118.0,6.98,12.73,47.59359,-54.27349
2021-01-17 18:24:01+00:00,144.0,5.3,142.0,6.74,12.73,47.59359,-54.27349
2021-01-17 18:34:01+00:00,135.0,4.37,139.0,5.02,12.73,47.59359,-54.27349
2021-01-17 18:44:01+00:00,93.0,4.63,91.0,7.97,12.73,47.59359,-54.27349
2021-01-17 18:54:01+00:00,120.0,5.52,124.0,6.63,12.73,47.59359,-54.27349
2021-01-17 19:04:01+00:00,113.0,4.34,113.0,5.97,12.73,47.59359,-54.27349
2021-01-17 19:14:01+00:00,100.0,4.08,84.0,6.99,12.49,47.59359,-54.27349
2021-01-17 19:24:01+00:00,92.0,2.54,107.0,4.32,12.49,47.59359,-54.27349
2021-01-17 19:34:01+00:00,118.0,4.79,124.0,6.83,12.49,47.59359,-54.27349
2021-01-17 19:44:01+00:00,128.0,6.74,123.0,9.38,12.49,47.59359,-54.27349
2021-01-17 19:54:01+00:00,133.0,7.03,134.0,8.76,12.49,47.59359,-54.27349
2021-01-17 20:04:01+00:00,118.0,6.03,117.0,7.97,12.49,47.59359,-54.27349
2021-01-17 20:14:01+00:00,127.0,5.95,131.0,7.24,12.41,47.59359,-54.27349
2021-01-17 20:24:01+00:00,120.0,6.28,122.0,8.67,12.41,47.59359,-54.27349
2021-01-17 20:34:01+00:00,123.0,4.6,120.0,5.81,12.41,47.59359,-54.27349
2021-01-17 20:44:01+00:00,110.0,3.89,112.0,5.77,12.41,47.59359,-54.27349
2021-01-17 20:54:01+00:00,137.0,4.12,138.0,5.94,12.41,47.59359,-54.27349
2021-01-17 21:04:01+00:00,134.0,5.23,136.0,6.23,12.41,47.59359,-54.27349
2021-01-17 21:14:01+00:00,139.0,5.54,144.0,6.7,12.41,47.59359,-54.27349
2021-01-17 21:24:01+00:00,131.0,5.69,133.0,6.59,12.41,47.59359,-54.27349
2021-01-17 21:34:01+00:00,146.0,7.29,145.0,8.62,12.41,47.59359,-54.27349
2021-01-17 21:44:01+00:00,157.0,10.5,157.0,12.52,12.41,47.59359,-54.27349
2021-01-17 21:54:01+00:00,158.0,11.78,160.0,13.75,12.41,47.59359,-54.27349
2021-01-17 22:04:01+00:00,152.0,10.88,151.0,12.63,12.41,47.59359,-54.27349
2021-01-17 22:14:01+00:00,164.0,11.73,157.0,13.69,12.33,47.59359,-54.27349
2021-01-17 22:24:01+00:00,177.0,10.92,167.0,12.71,12.33,47.59359,-54.27349
2021-01-17 22:34:01+00:00,178.0,10.19,180.0,11.6,12.33,47.59359,-54.27349
2021-01-17 22:44:01+00:00,206.0,12.09,208.0,14.0,12.33,47.59359,-54.27349
2021-01-17 22:54:01+00:00,206.0,12.95,208.0,14.5,12.33,47.59359,-54.27349
2021-01-17 23:04:01+00:00,202.0,12.5,199.0,13.75,12.33,47.59359,-54.27349
2021-01-17 23:14:01+00:00,202.0,11.02,204.0,12.96,12.33,47.59359,-54.27349
2021-01-17 23:24:01+00:00,208.0,10.12,208.0,10.91,12.33,47.59359,-54.27349
2021-01-17 23:34:01+00:00,216.0,11.51,213.0,13.34,12.33,47.59359,-54.27349
2021-01-17 23:44:01+00:00,217.0,9.68,221.0,10.62,12.33,47.59359,-54.27349
2021-01-17 23:54:01+00:00,225.0,9.8,224.0,11.21,12.33,47.59359,-54.27349
